Back to catalog

CZ-2D DEB

AliveSSO
NORAD 38177·DEBRIS·🇨🇳 China

Launched Nov 20, 2011 from Jiuquan Satellite Launch Center

Loading…

Next Passes (next 24 hours)

TLE

FreshSource: Space-Track

Epoch: Sep 13, 2026, 01:02 UTC

1 38177U 11068E   26256.04349663  .00000979  00000-0  25843-3 0  9998
2 38177  98.5000 283.7152 0117818 319.4315  68.7332 14.47271584773346

Track CZ-2D DEB in real time with AllMySat

Download on the App Store